Regional Weather Roundup
Issued by NWS

Home | Current Version | Previous Version | Graphics & Text | Print | Product List | Glossary On
Versions: 1 2 3 4 5 6 7 8 9 10 11 12 13 14 15 16 17 18 19 20 21 22 23 24 25 26 27 28 29 30 31 32 33 34 35 36 37 38 39 40 41 42 43 44 45 46 47 48 49 50
983
ASUS43 KDTX 091110
RWRMI
MICHIGAN HOURLY REGIONAL WEATHER ROUNDUP
NATIONAL WEATHER SERVICE DETROIT/PONTIAC MI
ISSUED BY NATIONAL WEATHER SERVICE GRAND RAPIDS MI
600 AM EST FRI DEC 09 2016

NOTE: "FAIR" INDICATES FEW OR NO CLOUDS BELOW 12,000 FEET WITH NO
SIGNIFICANT WEATHER AND/OR OBSTRUCTION TO VISIBILITY.

MIZ047>049-052>055-059>063-066>070-074>076-081>083-091200-
SOUTHEAST LOWER MICHIGAN

CITY           SKY/WX    TMP DP  RH WIND       PRES   REMARKS
ADRIAN         CLOUDY    24  21  88 W9        30.34R WCI  14
ALMA           PTCLDY    25  21  85 W8        30.30S WCI  16
ANN ARBOR      FLURRIES  25  22  88 SW8       30.31R WCI  16
BAD AXE        FLURRIES  26  20  76 NW7       30.25R WCI  19
DETROIT CITY   CLOUDY    26  23  88 W10       30.30R WCI  16
DETROIT        FLURRIES  26  22  84 W8        30.32R WCI  18
FLINT          CLOUDY    26  23  88 W8        30.29R WCI  18
GROSSE ILE     CLOUDY    26  22  86 W8        30.31R WCI  17
HILLSDALE      LGT SNOW  23  21  93 W10       30.31R WCI  12
HOWELL         CLOUDY    27  24  91 W7        30.29R WCI  19

CITY           SKY/WX    TMP DP  RH WIND       PRES   REMARKS
JACKSON        LGT SNOW  24  21  88 W9        30.31R FOG     WCI  14
LANSING        FLURRIES  27  23  85 W7        30.32R WCI  19
MASON          LGT SNOW  27  25  95 W6        30.31R WCI  20
MONROE         CLOUDY    26  22  88 W8        30.32S WCI  17
MT. CLEMENS    CLOUDY    28  23  80 W8        30.27R WCI  20
PONTIAC        MOCLDY    27  22  81 W13       30.27R WCI  16
PORT HOPE        N/A     29  18  63 NW13G22   30.23R WCI  19
PORT HURON     CLOUDY    27  23  86 W3        30.27R
TRI CITIES     CLEAR     20  18  92 W7        30.29R WCI  11
YPSILANTI      CLOUDY    27  23  85 W9        30.32R WCI  18
$$
MIZ043>046-050>051-056>058-064>065-071>073-077>080-091200-
SOUTHWEST LOWER MICHIGAN

CITY           SKY/WX    TMP DP  RH WIND       PRES   REMARKS
BATTLE CREEK   LGT SNOW  27  25  92 NW3       30.33R FOG
BENTON HARBOR  LGT SNOW  30  24  78 W10G22    30.38R WCI  21
BIG RAPIDS     CLOUDY    25  19  78 NW7       30.29S WCI  17
COLDWATER      LGT SNOW  23  21  91 W9        30.34R WCI  13
HOLLAND        CLOUDY    30  17  58 NW12G21   30.35R WCI  20
GRAND RAPIDS   CLOUDY    27  21  78 NW9       30.33R WCI  18
KALAMAZOO      SNOW      27  24  89 W5        30.35R VSB 1/2 WCI  22
MARSHALL       LGT SNOW  25  24  95 SW5       30.32R WCI  19
MOUNT PLEASANT CLEAR     23  18  81 W5        30.28S WCI  17
MUSKEGON       FLURRIES  30  18  60 NW14      30.35R WCI  19
STURGIS        LGT SNOW  22  19  89 W8        30.35S WCI  12
$$
MIZ016>042-091200-
NORTHERN LOWER MICHIGAN

CITY           SKY/WX    TMP DP  RH WIND       PRES   REMARKS
ALPENA         CLOUDY    19  14  81 W5        30.25R WCI  12
BEAVER ISLAND  MOCLDY    25  15  66 N6        30.28S WCI  18
BELLAIRE       CLOUDY    23  22  96 CALM      30.28R
CADILLAC       LGT SNOW  23  19  85 W6        30.24S WCI  16
CHARLEVOIX     CLOUDY    28  15  58 N14G20    30.29S WCI  16
GAYLORD        FLURRIES  21  15  78 CALM      30.22R
HOUGHTON LAKE  LGT SNOW  22  20  92 NW8       30.24S VSB 1   WCI  12
MANISTEE       FLURRIES  27  17  66 NW13G21   30.32R WCI  16
OSCODA         CLEAR     17  14  89 MISG      30.26R
PELLSTON       MOCLDY    15  13  91 CALM      30.27S
TRAVERSE CITY  CLOUDY    26  21  81 W12       30.28R WCI  16
LUDINGTON      CLOUDY    27  15  60 NW9       30.33S WCI  18
$$
MIZ007>008-015-091200-
EASTERN UPPER MICHIGAN

CITY           SKY/WX    TMP DP  RH WIND       PRES   REMARKS
KINROSS        LGT SNOW  16  12  86 N3        30.26R FOG
MACKINAC ISLAN MOCLDY    21  17  83 N7        30.26R WCI  13
NEWBERRY       CLOUDY    19  17  92 W6        30.26R WCI  11
S. S. MARIE    MOCLDY    18   8  65 N3        30.25R
$$
MIZ004>006-011>014-085-091200-
CENTRAL UPPER MICHIGAN

CITY           SKY/WX    TMP DP  RH WIND       PRES   REMARKS
MANISTIQUE     LGT SNOW  21  20  98 W7        30.29S WCI  12
ESCANABA       CLEAR     18  12  77 W9        30.34R WCI   7
MENOMINEE      CLEAR     19  10  68 NW6       30.38R WCI  11
SAWYER-GWINN   MOCLDY    15  12  89 W7        30.29S WCI   5
$$
MIZ001>003-009>011-084-091200-
WESTERN UPPER MICHIGAN

CITY           SKY/WX    TMP DP  RH WIND       PRES   REMARKS
IRON MOUNTAIN  CLEAR     17   8  67 NW13G22   30.32R WCI   4
HOUGHTON       LGT SNOW  20  14  77 NW6       30.32R WCI  12
COPPER HARBOR    N/A     24  17  74 NE24G30   30.33S WCI   8
IRONWOOD       FLURRIES  17  11  77 W13       30.39S WCI   4
$$

ABBREVIATIONS USED IN REMARKS
   TC - TEMPERATURE IN CELSIUS
  WCI - WIND CHILL INDEX
   HX - HEAT INDEX
  VSB - VISIBILITY





USA.gov is the U.S. government's official web portal to all federal, state and local government web resources and services.